カタログに戻る

STARLINK-31599

運用中通信VLEO
NORAD 59327·PAYLOAD·🇺🇸 United States

打ち上げ Mar 25, 2024 から Cape Canaveral Space Force Station

Loading…

次のパス (今後24時間)

TLE

最新Source: CelesTrak SupGP

元期: Sep 15, 2026, 02:52 UTC

1 59327C 24057H   26258.11993056 -.00027249  00000+0 -98715-3 0  2587
2 59327  42.9993 197.0555 0001349 273.9387  44.8554 15.27585516    18

AllMySatでSTARLINK-31599をリアルタイム追跡

Download on the App Store